KTXEAGLE7 Weather Reports


Display with metric or nautical units.
time (UTC)temp
F
wind
direction
speed
MPH
gust
MPH
rain 1hr
in
rain 24hr
in
rain mn
in
humidity
%
barometer
mb
20260902013046 83 150 2.0 4.0 0.00 0.00 0.00 83 1013.5
20260902011548 84 135 3.0 7.0 0.00 0.00 0.00 81 1013.3
20260902010056 85 143 6.0 10.0 0.00 0.00 0.00 78 1013.2
20260902004546 86 149 4.0 9.0 0.00 0.00 0.00 73 1013.2
20260902003042 88 86 4.0 8.0 0.00 0.00 0.00 64 1013.0
20260902001541 89 92 3.0 6.0 0.00 0.00 0.00 65 1013.0
20260902000051 89 106 5.0 8.0 0.00 0.00 0.00 64 1013.1
20260901234604 90 66 4.0 10.0 0.00 0.00 0.00 62 1012.9
20260901233040 91 88 6.0 11.0 0.00 0.00 0.00 61 1013.1
20260901231548 92 92 7.0 12.0 0.00 0.00 0.00 58 1013.1
20260901230056 92 76 4.0 6.0 0.00 0.00 0.00 63 1013.1
20260901224538 91 103 5.0 8.0 0.00 0.00 0.00 63 1012.9
20260901223059 91 100 4.0 7.0 0.00 0.00 0.00 63 1012.8
20260901221537 91 94 2.0 8.0 0.00 0.00 0.00 65 1013.1
20260901220035 91 51 4.0 9.0 0.00 0.00 0.00 65 1013.3
20260901214531 91 95 5.0 9.0 0.00 0.00 0.00 66 1013.4
20260901213030 91 105 7.0 11.0 0.00 0.00 0.00 65 1013.4
20260901211541 92 118 4.0 11.0 0.00 0.00 0.00 65 1013.4
20260901210027 91 111 6.0 9.0 0.00 0.00 0.00 65 1013.6
20260901204539 90 94 5.0 10.0 0.00 0.00 0.00 67 1013.6
20260901203026 90 95 7.0 12.0 0.00 0.00 0.00 66 1014.0
20260901201523 90 97 8.0 11.0 0.00 0.00 0.00 69 1014.2
20260901200035 91 80 9.0 14.0 0.00 0.00 0.00 66 1014.2
20260901194522 91 71 4.0 8.0 0.00 0.00 0.00 64 1014.3
20260901193019 92 48 1.0 8.0 0.00 0.00 0.00 62 1014.5
20260901191521 92 41 3.0 6.0 0.00 0.00 0.00 62 1014.8
20260901190023 92 69 1.0 10.0 0.00 0.00 0.00 65 1014.9
20260901184519 92 90 6.0 9.0 0.00 0.00 0.00 64 1015.0
20260901183031 91 27 4.0 10.0 0.00 0.00 0.00 64 1015.2
20260901181507 91 24 5.0 10.0 0.00 0.00 0.00 66 1015.8
20260901180003 89 57 3.0 9.0 0.00 0.00 0.00 68 1015.8
20260901174501 89 42 3.0 10.0 0.00 0.00 0.00 69 1016.1
20260901173110 88 40 3.0 11.0 0.00 0.00 0.00 70 1016.2
20260901171612 89 82 4.0 6.0 0.00 0.00 0.00 66 1016.4
20260901164630 88 17 2.0 6.0 0.00 0.00 0.00 67 1016.5
20260901163055 88 355 2.0 5.0 0.00 0.00 0.00 68 1016.7
20260901161552 87 36 0.0 9.0 0.00 0.00 0.00 71 1016.6
20260901160054 87 5 2.0 6.0 0.00 0.00 0.00 70 1016.5
20260901154550 87 76 3.0 8.0 0.00 0.00 0.00 72 1016.7
20260901153048 86 11 1.0 6.0 0.00 0.00 0.00 74 1016.8
20260901151547 85 49 3.0 6.0 0.00 0.00 0.00 79 1016.6
20260901150041 84 74 2.0 5.0 0.00 0.00 0.00 85 1016.7
20260901144540 82 360 1.0 5.0 0.00 0.00 0.00 88 1016.7
20260901143040 81 57 3.0 5.0 0.00 0.00 0.00 90 1016.7
20260901141531 81 35 1.0 5.0 0.00 0.00 0.00 92 1016.6
20260901140031 80 306 1.0 5.0 0.00 0.00 0.00 94 1016.9
20260901134524 79 13 1.0 4.0 0.00 0.00 0.00 95 1016.8
20260901133035 79 338 1.0 4.0 0.00 0.00 0.00 95 1016.6
20260901131521 78 342 2.0 4.0 0.00 0.00 0.00 97 1016.7
20260901130020 77 355 1.0 3.0 0.00 0.00 0.00 97 1016.4
20260901124518 76 292 0.0 0.0 0.00 0.00 0.00 97 1016.3
20260901123017 76 292 0.0 3.0 0.00 0.00 0.00 98 1016.0
20260901121519 76 311 0.0 3.0 0.00 0.00 0.00 97 1015.8
20260901120017 76 338 1.0 4.0 0.00 0.00 0.00 97 1015.8
20260901114514 76 26 0.0 3.0 0.00 0.00 0.00 97 1015.6
20260901113015 76 349 0.0 0.0 0.00 0.00 0.00 97 1015.5
20260901111514 76 349 0.0 2.0 0.00 0.00 0.00 97 1015.5
20260901110025 76 349 1.0 2.0 0.00 0.00 0.00 97 1015.5
20260901104511 77 13 0.0 2.0 0.00 0.00 0.00 97 1015.6
20260901103010 77 13 0.0 2.0 0.00 0.00 0.00 97 1015.5
20260901101511 77 13 1.0 4.0 0.00 0.00 0.00 97 1015.4
20260901100010 77 360 1.0 3.0 0.00 0.00 0.00 97 1015.4
20260901094511 77 45 0.0 0.0 0.00 0.00 0.00 97 1015.5
20260901093007 77 45 0.0 0.0 0.00 0.00 0.00 96 1015.4
20260901091506 78 45 0.0 2.0 0.00 0.00 0.00 97 1015.4
20260901090012 77 45 1.0 3.0 0.00 0.00 0.00 96 1015.4
20260901084503 78 45 0.0 2.0 0.00 0.00 0.00 96 1015.6
20260901083003 78 45 0.0 0.0 0.00 0.00 0.00 96 1015.7
20260901081614 78 45 0.0 3.0 0.00 0.00 0.00 95 1015.7
20260901074559 78 45 0.0 0.0 0.00 0.00 0.00 95 1015.8
20260901073058 78 45 0.0 0.0 0.00 0.00 0.00 95 1016.0
20260901071603 78 141 0.0 2.0 0.00 0.00 0.00 95 1016.0
20260901064555 78 141 0.0 2.0 0.00 0.00 0.00 94 1016.1
20260901063054 78 141 0.0 0.0 0.00 0.00 0.00 94 1016.2
20260901061555 78 141 0.0 0.0 0.00 0.00 0.00 94 1016.2
20260901060051 78 141 0.0 0.0 0.00 0.00 0.00 94 1016.1
20260901054550 79 141 0.0 2.0 0.00 0.00 0.00 94 1015.8
20260901053112 79 141 0.0 0.0 0.00 0.00 0.00 93 1015.9
20260901051547 78 141 0.0 1.0 0.00 0.00 0.00 93 1015.8
20260901050045 79 141 1.0 3.0 0.00 0.00 0.00 94 1015.9
20260901044551 79 141 0.0 0.0 0.00 0.00 0.00 93 1015.8
20260901043114 79 141 0.0 3.0 0.00 0.00 0.00 93 1015.8
20260901041543 79 141 2.0 3.0 0.00 0.00 0.00 93 1015.7
20260901040053 79 141 2.0 4.0 0.00 0.00 0.00 93 1015.5
20260901034558 79 141 0.0 0.0 0.00 0.00 0.00 93 1015.6
20260901033057 79 141 0.0 0.0 0.00 0.00 0.00 93 1015.5
20260901031542 80 141 0.0 3.0 0.00 0.00 0.00 92 1015.4
20260901030041 80 141 1.0 3.0 0.00 0.00 0.00 91 1015.1
20260901024547 80 141 2.0 3.0 0.00 0.00 0.00 90 1015.0
20260901023040 81 143 3.0 7.0 0.00 0.00 0.00 89 1014.8
20260901021540 81 140 4.0 5.0 0.00 0.00 0.00 89 1014.6
20260901020039 81 134 4.0 7.0 0.00 0.00 0.00 88 1014.2
20260901014539 82 140 6.0 10.0 0.00 0.00 0.00 87 1014.1